Regional Weather Roundup
Issued by NWS

Home | Current Version | Previous Version | Graphics & Text | Print | Product List | Glossary On
Versions: 1 2 3 4 5 6 7 8 9 10 11 12 13 14 15 16 17 18 19 20 21 22 23 24 25 26 27 28 29 30 31 32 33 34 35 36 37 38 39 40 41 42 43 44 45 46 47 48 49 50
000
ASUS43 KTOP 301359
RWRKS

WEATHER ROUNDUP FOR KANSAS
NATIONAL WEATHER SERVICE GOODLAND KS
900 AM CDT SUN AUG 30 2015

NOTE:  "FAIR" INDICATES FEW OR NO CLOUDS BELOW 12,000 FEET WITH NO
SIGNIFICANT WEATHER AND/OR OBSTRUCTIONS TO VISIBILITY.

KSZ001>006-013>018-027>032-041>047-301500-
NORTHWEST KANSAS

CITY           SKY/WX    TMP DP  RH WIND       PRES   REMARKS
GOODLAND       MOSUNNY   65  50  58 S10       30.09S
HAYS           CLOUDY    57  52  82 CALM      30.07S VSB 1/2
HILL CITY      PTSUNNY   59  58  96 CALM      30.07S FOG
RUSSELL        FOG       58  58 100 SW7       30.06R VSB<1/4
$$

KSZ061>065-074>080-084>089-301500-
SOUTHWEST KANSAS

CITY           SKY/WX    TMP DP  RH WIND       PRES   REMARKS
DODGE CITY     FOG       57  57 100 SW8       30.09S VSB 1
ELKHART          N/A     70  53  54 S8          N/A
GARDEN CITY    SUNNY     62  56  80 SE3       30.08S
GREAT BEND     CLOUDY    57  54  88 CALM      30.07S
LIBERAL        SUNNY     61  54  77 CALM      30.10S
PRATT          MOSUNNY   59  57  94 CALM      30.08S FOG
$$

KSZ066>073-081>083-090>101-301500-
SOUTHEAST KANSAS

CITY           SKY/WX    TMP DP  RH WIND       PRES   REMARKS
CHANUTE        FOG       69  68  96 E3        30.04R VSB 1/4
COFFEYVILLE    FOG       68  68 100 NE7       30.01S VSB 1/2
HUTCHINSON     FOG       63  62  97 NE3       30.07R VSB 1/4
NEWTON         CLOUDY    64  59  82 CALM      30.09R VSB 1/4
PARSONS        CLOUDY    70  70 100 CALM      30.03R FOG
WICHITA INTL   FOG       64  63  96 NE5       30.05R VSB 1/4
WICHITA JABRA  FOG       63  63 100 N5        30.05R VSB 1/2
WICHITA MCCONL FOG       64  63  94 NE5       30.05R VSB 1
$$

KSZ007>012-019>026-033>040-048>060-102>105-301500-
NORTHEAST KANSAS

CITY           SKY/WX    TMP DP  RH WIND       PRES   REMARKS
CONCORDIA      FOG       60  60 100 CALM      30.08R VSB<1/4
EMPORIA        CLOUDY    67  65  93 NE3       30.05S
LAWRENCE       FOG       68  67  96 E3        30.05R VSB 1/4
MANHATTAN      CLOUDY    63  62  97 CALM      30.06R FOG
OLATHE IND     CLOUDY   N/A N/A N/A E7        30.05R FOG
OLATHE EXE     FOG       68  68 100 E3        30.04R VSB 3/4
SALINA         CLOUDY    65  62  90 CALM      30.07R FOG
TOPEKA BILLARD FOG       66  66 100 CALM      30.06R VSB 1/4
TOPEKA FORBES  FOG       67  65  93 N3        30.06R VSB<1/4
$$


USA.gov is the U.S. government's official web portal to all federal, state and local government web resources and services.